Regional Weather Roundup
Issued by NWS

Home | Current Version | Previous Version | Text Only | Print | Product List | Glossary On
Versions: 1 2 3 4 5 6 7 8 9 10 11 12 13 14 15 16 17 18 19 20 21 22 23 24 25 26 27 28 29 30 31 32 33 34 35 36 37 38 39 40 41 42 43 44 45 46 47 48 49 50
000
ASUS43 KLMK 270802
RWRKY
KENTUCKY REGIONAL WEATHER ROUNDUP
NATIONAL WEATHER SERVICE LOUISVILLE KY
400 AM EDT FRI MAR 27 2015

NOTE "FAIR" INDICATES FEW OR NO CLOUDS BELOW 12,000 FEET
WITH NO SIGNIFICANT WEATHER AND/OR OBSTRUCTIONS TO VISIBILITY.

KYZ001>023-026-027-061>063-070>075-270900-
WESTERN AND SOUTH CENTRAL KENTUCKY

CITY           SKY/WX    TMP DP  RH WIND       PRES   REMARKS
PADUCAH        CLEAR     32  29  88 CALM      30.00F
HENDERSON      CLEAR     30  27  86 CALM      30.00F
OWENSBORO      CLEAR     34  34 100 CALM      30.00F
HOPKINSVILLE   CLEAR     35  32  90 NW1       29.98F
BOWLING GREEN  CLEAR     37  33  85 NW3       29.98F
GLASGOW        NOT AVBL
$$

KYZ024-025-028>034-038-045-046-053-270900-
NORTH CENTRAL KENTUCKY

CITY           SKY/WX    TMP DP  RH WIND       PRES   REMARKS
LOUISVILLE/SDF PTCLDY    38  30  73 N8        29.98F WCI  32
LOUISVILLE/LOU CLEAR     37  30  75 N5        29.98F WCI  33
FORT KNOX      PTCLDY    36  34  91 NW6       29.95F WCI  31
$$

KYZ035>037-039>044-047>052-055>060-089>105-270900-
NORTHEAST KENTUCKY

CITY           SKY/WX    TMP DP  RH WIND       PRES   REMARKS
LEXINGTON      CLOUDY    36  34  92 NW5       29.94F WCI  32
COVINGTON      PTCLDY    34  24  67 N8        29.96R WCI  27
FRANKFORT      CLOUDY    37  34  89 NW3       29.94F
$$

KYZ054-064>069-076>088-106>120-270900-
SOUTHEAST KENTUCKY

CITY           SKY/WX    TMP DP  RH WIND       PRES   REMARKS
JACKSON        CLOUDY    38  35  89 VRB5      29.90S WCI  34
LONDON         CLOUDY    41  34  76 N7        29.91F
SOMERSET       NOT AVBL
MIDDLESBORO    CLOUDY    40  38  89 NW7       29.90F
MONTICELLO     CLOUDY    40  37  89 N8        29.97S WCI  34
$$




USA.gov is the U.S. government's official web portal to all federal, state and local government web resources and services.